User: anonymous   Login
Location: Napier
(39.4830°S, 176.9170°E)
Time: 12:07:23
(UTC+13:00)
Language:

ERS-1 Rocket - Orbit

View from above orbital plane
View from above orbital plane
View from above satellite
View from above satellite

Ground track
Ground track

The orbit data is extracted from the following two-line orbital elements,

1 21610U 91050F   19083.17203551 -.00000014  00000-0  94914-5 0  9998
2 21610  98.5176 150.5058 0003736 155.5735 257.3695 14.40865274452999
Epoch (UTC): 24 March 2019 04:07:43
Eccentricity: 0.0003736
inclination: 98.5176°
perigee height: 753 km
apogee height: 758 km
right ascension of ascending node: 150.5058°
argument of perigee: 155.5735°
revolutions per day: 14.40865274
mean anomaly at epoch: 257.3695°
orbit number at epoch: 45299

The dashed part of the orbit path shows where the satellite is in the earth's shadow,  

DLR